Showing default

ICESAT-2, 43613

Orbit data source: Space-Track

ICESAT-2, 43613 is a payload satellite owned by GSFC (US) in LEO that was launched on Sat, 15 Sep 2018 UTC via a DELTA 7420-10C launch vehicle from the Air Force Western Test Range (AFWTR). Payload-class satellites include a variety of spacecraft equipped with specific instruments for various scientific and technological missions. These include communications satellites like Starlink; space stations such as the ISS; scientific satellites like the Hubble; Earth observation satellites from companies like Planet Labs, Umbra, and HawkEye 360; GPS; miniature CubeSats for education and research; and military/defense satellites.

Loading next visibility...
Identifier
43613, 2018-070A
Orbit
LEO
Country
Flag of USUS
Related business
Manufacturer
NGIS SSG Gilbert
Mission
Operational Civil Science
Bus & Motor
LEOSTAR-3, AOCS
Mass
1,580 kg wet, 1,402 kg dry
Launch date (UTC)
2018-09-15 (7 years ago)
Launch vehicle
DELTA 7420-10C
Launch site
Air Force Western Test Range (AFWTR)
Object type
Payload
Rocket body
Debris
Shape & HBR
Box + 1 Pan, 5.5 m
Radar Cross Section
16.786 m², Large (>1 m²)

Expand to show TLE details & history
Last TLE update: 6 hours ago

TLE from 6 hours ago
0 ICESAT-2
1 43613U 18070A   26072.62106942  .00003753  00000-0  13634-3 0  9998
2 43613  91.9993 265.2264 0003933 111.8767 248.2901 15.28240976417861
Epoch: 2026-03-13T14:54Z
TLE epoch observation values (Epoch: 2026-03-13T14:54:20.397Z)
Latitude
-0.00003°
Longitude
-129.61256°
Altitude
485.27 km
Speed
7.622 km/s
True Right ascension
17h 40m 54s
True Declination
0° 00' 00"
Sunlit
Object was in daylight at epoch
Visualization orbit readout
Latitude
Unknown
Longitude
Unknown
Altitude
Unknown
Speed
Unknown
Apparent Right ascension
Unknown
Apparent Declination
Unknown
Sunlit
N/A
Visualization observer readout
Local Sidereal Time
01:16:00
Azimuth
Unknown
Elevation
Unknown
Doppler factor
Unknown
Orbital elements
Apogee altitude
480.574 km
Perigee altitude
475.181 km
Semi-major axis
6,856.014 km
Eccentricity
0.00039
Inclination
91.9993°
RAAN
265.2264°
Arg. of periapsis
111.8767°
True anomaly
248.24824°
Mean anomaly
248.2901°
Eccentric anomaly
248.26917°
Mean motion
3.82328 °/min
Orbital period
94.16 mins
BSTAR
0.00013634
Loading maneuver chart data...
Computing Atmospheric mass density...
Loading historical data...
Loading historical data...
Loading historical data...
Loading historical data...
Loading historical data...
Loading historical data...
Loading historical data...

Documentation

Showing up to 5 results
|